TimeEDT,TemperatureF,Dew PointF,Humidity,Sea Level PressureIn,VisibilityMPH,Wind Direction,Wind SpeedMPH,Gust SpeedMPH,PrecipitationIn,Events,Conditions,WindDirDegrees,DateUTC
12:54 AM,64.0,60.1,87,29.91,10.0,South,12.7,-,0.00,Rain,Light Rain,170,2013-04-19 04:54:00
1:54 AM,64.0,59.0,84,29.88,10.0,SSE,12.7,20.7,0.00,Rain,Light Rain,160,2013-04-19 05:54:00
2:54 AM,64.0,59.0,84,29.86,10.0,SSE,8.1,-,0.00,,Overcast,160,2013-04-19 06:54:00
3:21 AM,62.6,60.8,94,29.91,10.0,South,12.7,19.6,0.00,,Overcast,170,2013-04-19 07:21:00
3:29 AM,64.4,59.0,83,29.91,10.0,SSE,12.7,23.0,0.00,,Overcast,160,2013-04-19 07:29:00
3:54 AM,63.0,59.0,87,29.83,10.0,South,15.0,23.0,0.00,Rain,Light Rain,170,2013-04-19 07:54:00
4:54 AM,64.0,59.0,84,29.82,10.0,South,19.6,26.5,0.00,,Overcast,180,2013-04-19 08:54:00
5:54 AM,64.0,59.0,84,29.80,10.0,SSE,15.0,-,N/A,,Overcast,160,2013-04-19 09:54:00
6:54 AM,64.0,60.1,87,29.82,10.0,South,15.0,-,0.00,,Overcast,190,2013-04-19 10:54:00
7:54 AM,64.9,59.0,81,29.81,10.0,South,16.1,25.3,0.00,Rain,Light Rain,170,2013-04-19 11:54:00
8:54 AM,64.0,59.0,84,29.81,10.0,South,17.3,23.0,0.00,Rain,Light Rain,180,2013-04-19 12:54:00
9:54 AM,64.0,61.0,90,29.80,7.0,South,13.8,20.7,0.07,Rain,Light Rain,190,2013-04-19 13:54:00
10:54 AM,64.9,61.0,87,29.78,10.0,South,13.8,-,0.00,,Overcast,190,2013-04-19 14:54:00
11:54 AM,64.9,62.1,90,29.76,10.0,South,15.0,23.0,0.01,Rain,Light Rain,180,2013-04-19 15:54:00
12:45 PM,66.2,62.6,88,29.79,3.0,South,16.1,-,0.02,Rain,Rain,170,2013-04-19 16:45:00
12:54 PM,64.9,62.1,90,29.73,2.0,South,12.7,-,0.05,Rain,Rain,180,2013-04-19 16:54:00
1:01 PM,66.2,60.8,83,29.79,5.0,South,21.9,31.1,0.01,Rain,Rain,170,2013-04-19 17:01:00
1:32 PM,64.4,62.6,94,29.78,2.0,South,18.4,34.5,0.12,Rain,Heavy Rain,190,2013-04-19 17:32:00
1:35 PM,64.4,62.6,94,29.78,1.8,South,21.9,34.5,0.16,Rain,Heavy Rain,180,2013-04-19 17:35:00
1:46 PM,64.4,62.6,94,29.81,3.0,SSW,12.7,26.5,0.23,Rain,Heavy Rain,200,2013-04-19 17:46:00
1:54 PM,64.9,62.1,90,29.76,5.0,SSW,12.7,-,0.26,Rain,Rain,200,2013-04-19 17:54:00
2:54 PM,64.9,61.0,87,29.75,7.0,South,13.8,21.9,0.06,Rain,Rain,190,2013-04-19 18:54:00
3:46 PM,62.6,60.8,94,29.80,10.0,SSW,11.5,-,0.12,Rain,Light Rain,200,2013-04-19 19:46:00
3:54 PM,64.0,60.1,87,29.75,10.0,South,12.7,19.6,0.12,,Overcast,190,2013-04-19 19:54:00
4:13 PM,62.6,60.8,94,29.80,10.0,South,12.7,19.6,N/A,,Overcast,190,2013-04-19 20:13:00
4:54 PM,63.0,59.0,87,29.73,10.0,South,6.9,-,0.00,,Scattered Clouds,190,2013-04-19 20:54:00
5:30 PM,55.4,53.6,94,29.83,10.0,NNW,19.6,25.3,0.00,Rain,Light Rain,340,2013-04-19 21:30:00
5:43 PM,53.6,51.8,94,29.82,10.0,NNW,18.4,21.9,0.00,,Mostly Cloudy,340,2013-04-19 21:43:00
5:54 PM,52.0,50.0,93,29.77,10.0,NNW,18.4,27.6,0.00,,Mostly Cloudy,340,2013-04-19 21:54:00
6:54 PM,51.1,46.9,86,29.77,10.0,North,13.8,21.9,N/A,,Overcast,350,2013-04-19 22:54:00
7:54 PM,50.0,46.0,86,29.80,10.0,NNW,12.7,-,N/A,,Mostly Cloudy,340,2013-04-19 23:54:00
8:07 PM,50.0,44.6,82,29.84,10.0,NNW,18.4,23.0,N/A,,Partly Cloudy,340,2013-04-20 00:07:00
8:54 PM,48.9,44.1,83,29.83,10.0,North,18.4,23.0,N/A,,Scattered Clouds,350,2013-04-20 00:54:00
9:04 PM,48.2,44.6,87,29.87,10.0,North,13.8,25.3,N/A,,Mostly Cloudy,350,2013-04-20 01:04:00
9:16 PM,48.2,42.8,82,29.87,10.0,NNW,16.1,29.9,N/A,,Scattered Clouds,340,2013-04-20 01:16:00
9:54 PM,46.9,39.9,77,29.87,10.0,North,15.0,24.2,N/A,,Partly Cloudy,360,2013-04-20 01:54:00
10:54 PM,45.0,34.0,65,29.92,10.0,NNW,19.6,27.6,N/A,,Clear,340,2013-04-20 02:54:00
11:54 PM,44.1,33.1,65,29.94,10.0,NNW,18.4,25.3,N/A,,Clear,330,2013-04-20 03:54:00